(413900) = 2006 WO6 = 2010 VH73

Discovered at Kitt Peak on 2006-11-16 by Spacewatch.

Orbit

Orbit type: Main Belt

Note: WebGL enabled browser required.

epoch2023-09-13.0
epoch JD2460200.5
perihelion date2022-09-03.39079
perihelion JD2459825.89079
argument of perihelion (°)145.05006
ascending node (°)191.26423
inclination (°)5.50138
eccentricity0.1655660
perihelion distance (AU)2.1507274
Tisserand w.r.t. Jupiter3.4
ΔV w.r.t. Earth (km/sec)9.4
semimajor axis (AU)2.5774684
mean anomaly (°)89.22617
mean daily motion (°/day)0.23818470
aphelion distance (AU)3.004
period (years)4.14
P-vector [x]0.91524742
P-vector [y]-0.38804189
P-vector [z]-0.10837730
Q-vector [x]0.40245679
Q-vector [y]0.86805612
Q-vector [z]0.29070106
absolute magnitude17.68
phase slope0.15
uncertainty0
referenceMPO 779879
observations used199
oppositions10
arc length (days)5814
first opposition used2006
last opposition used2022
residual rms (arc-secs)0.81
perturbers coarse indicatorM-v
perturbers precise indicator003Ek
first observation date used2006-11-16.0
last observation date used2022-10-17.0
computer nameMPCLINUX
Minimum Orbit Intersection Distances (in AU)
for orbit epoch: 2460200.5, reference: E2023-TP1
Mercury1.75693
Venus1.42992
Earth1.14369
Mars0.78106
Jupiter2.38362
Saturn6.23267
Uranus15.4525
Neptune27.3507

Observations

204 total observations over interval: 2006 11 16.21343 – 2022 10 17.276905
These data are available for download (format description).

Date (UT) J2000 RA J2000 Dec Magn Location Ref
2006 11 16.21343 04 22 07.52 +14 31 03.8 21.6 V 691 – Steward Observatory, Kitt Peak-Spacewatch MPS 189007
2006 11 16.23086 04 22 06.55 +14 30 59.7 21.2 V 691 – Steward Observatory, Kitt Peak-Spacewatch MPS 189007
2006 11 16.24827 04 22 05.53 +14 30 55.0 21.2 V 691 – Steward Observatory, Kitt Peak-Spacewatch MPS 189007
2006 11 18.34439 04 20 05.31 +14 21 43.9 20.3 V G96 – Mt. Lemmon Survey MPS 189007
2006 11 18.35418 04 20 04.81 +14 21 41.6 19.1 V G96 – Mt. Lemmon Survey MPS 189007
2006 11 18.36397 04 20 04.12 +14 21 38.4 20.5 V G96 – Mt. Lemmon Survey MPS 189007
2006 11 18.37376 04 20 03.51 +14 21 35.5 20.6 V G96 – Mt. Lemmon Survey MPS 189007
2006 11 24.35546 04 14 11.50 +13 56 32.7 20.2 V G96 – Mt. Lemmon Survey MPS 312497
2006 11 24.36160 04 14 11.14 +13 56 30.9 20.4 V G96 – Mt. Lemmon Survey MPS 312497
2006 11 24.36776 04 14 10.75 +13 56 29.6 20.9 V G96 – Mt. Lemmon Survey MPS 312497
2006 11 24.37394 04 14 10.35 +13 56 28.5 20.3 V G96 – Mt. Lemmon Survey MPS 312497
2009 05 30.34183 16 00 20.44 -13 11 06.2 20.8 V G96 – Mt. Lemmon Survey MPS 359031
2009 05 30.35094 16 00 19.94 -13 11 04.3 20.8 V G96 – Mt. Lemmon Survey MPS 359031
2009 05 30.35986 16 00 19.40 -13 11 02.4 20.9 V G96 – Mt. Lemmon Survey MPS 359031
2009 05 30.36885 16 00 18.90 -13 11 00.3 20.7 V G96 – Mt. Lemmon Survey MPS 359031
2010 11 02.36990 03 04 40.00 +12 03 12.4 20.6 V G96 – Mt. Lemmon Survey MPS 355718
2010 11 02.37685 03 04 39.61 +12 03 09.7 20.3 V G96 – Mt. Lemmon Survey MPS 355718
2010 11 02.38374 03 04 39.21 +12 03 07.0 20.7 V G96 – Mt. Lemmon Survey MPS 355718
2010 11 02.39069 03 04 38.82 +12 03 04.1 20.1 V G96 – Mt. Lemmon Survey MPS 355718
2010 11 09.25081 02 58 21.00 +11 20 05.8 20.6 V 703 – Catalina Sky Survey MPS 355718
2010 11 09.25595 02 58 20.71 +11 20 03.0 20.3 V 703 – Catalina Sky Survey MPS 355718
2010 11 09.26113 02 58 20.46 +11 20 02.7 20.0 V 703 – Catalina Sky Survey MPS 355718
2010 11 09.26628 02 58 20.06 +11 20 01.4 19.6 V 703 – Catalina Sky Survey MPS 355718
2010 11 11.25558 02 56 31.16 +11 08 06.6 20.2 V G96 – Mt. Lemmon Survey MPS 355443
2010 11 11.26250 02 56 30.76 +11 08 04.0 19.9 V G96 – Mt. Lemmon Survey MPS 355443
2010 11 11.26948 02 56 30.37 +11 08 01.5 19.9 V G96 – Mt. Lemmon Survey MPS 355443
2010 11 11.27646 02 56 29.97 +11 07 58.9 20.3 V G96 – Mt. Lemmon Survey MPS 355443
2010 12 06.27147 02 38 27.63 +09 22 20.6 20.8 V G96 – Mt. Lemmon Survey MPS 359031
2010 12 06.27827 02 38 27.45 +09 22 18.8 20.8 V G96 – Mt. Lemmon Survey MPS 359031
2010 12 06.28460 02 38 27.31 +09 22 18.6 20.7 V G96 – Mt. Lemmon Survey MPS 359031
2010 12 06.29108 02 38 27.06 +09 22 17.6 20.9 V G96 – Mt. Lemmon Survey MPS 359031
2013 05 09.41228 15 02 25.484 -11 46 02.52 20.9 w F51 – Pan-STARRS 1, Haleakala MPS 466855
2013 05 09.42624 15 02 24.698 -11 45 57.92 20.9 w F51 – Pan-STARRS 1, Haleakala MPS 466855
2013 05 09.44021 15 02 23.921 -11 45 53.17 21.1 w F51 – Pan-STARRS 1, Haleakala MPS 466855
2013 05 09.45418 15 02 23.135 -11 45 48.44 21.1 w F51 – Pan-STARRS 1, Haleakala MPS 466856
2014 09 23.28499 01 53 51.64 +10 39 44.2   691 – Steward Observatory, Kitt Peak-Spacewatch MPS 533225
2014 09 23.30534 01 53 50.99 +10 39 37.5   691 – Steward Observatory, Kitt Peak-Spacewatch MPS 533225
2014 09 23.32570 01 53 50.36 +10 39 30.3   691 – Steward Observatory, Kitt Peak-Spacewatch MPS 533225
2014 09 23.42045 01 53 47.726 +10 38 55.38 20.6 w F51 – Pan-STARRS 1, Haleakala MPS 533225
2014 09 23.44219 01 53 47.028 +10 38 47.34 20.8 w F51 – Pan-STARRS 1, Haleakala MPS 533225
2014 09 23.45304 01 53 46.673 +10 38 43.16 20.7 w F51 – Pan-STARRS 1, Haleakala MPS 533225
2014 10 01.24421 01 49 13.80 +09 45 50.6 20.4 V 691 – Steward Observatory, Kitt Peak-Spacewatch MPS 536634
2014 10 01.26454 01 49 12.93 +09 45 41.6 20.5 V 691 – Steward Observatory, Kitt Peak-Spacewatch MPS 536634
2014 10 01.28487 01 49 12.07 +09 45 32.6 20.8 V 691 – Steward Observatory, Kitt Peak-Spacewatch MPS 536634
2014 10 15.36771 01 38 25.13 +07 55 32.7 19.9 V G96 – Mt. Lemmon Survey MPS 538909
2014 10 15.37229 01 38 24.87 +07 55 31.5 19.6 V G96 – Mt. Lemmon Survey MPS 538909
2014 10 15.37688 01 38 24.70 +07 55 28.8 19.8 V G96 – Mt. Lemmon Survey MPS 538909
2014 10 15.38146 01 38 24.46 +07 55 26.3 19.7 V G96 – Mt. Lemmon Survey MPS 538909
2014 10 23.23784 01 31 57.89 +06 53 23.0 20.2 r G45 – Space Surveillance Telescope, Atom Site MPS 558645
2014 10 23.25118 01 31 57.28 +06 53 16.1 20.3 r G45 – Space Surveillance Telescope, Atom Site MPS 558645
2014 10 23.25225 01 31 57.20 +06 53 15.1 20.1 r G45 – Space Surveillance Telescope, Atom Site MPS 558645
2014 10 23.29114 01 31 55.23 +06 52 57.0 19.9 r G45 – Space Surveillance Telescope, Atom Site MPS 558645
2014 10 23.30340 01 31 54.64 +06 52 51.1 20.4 r G45 – Space Surveillance Telescope, Atom Site MPS 558645
2014 10 24.24436 01 31 09.57 +06 45 43.2 20.4 r G45 – Space Surveillance Telescope, Atom Site MPS 558645
2014 10 24.24547 01 31 09.50 +06 45 42.5 19.9 r G45 – Space Surveillance Telescope, Atom Site MPS 558645
2014 10 24.25693 01 31 09.03 +06 45 37.0 20.5 r G45 – Space Surveillance Telescope, Atom Site MPS 558645
2014 10 24.27330 01 31 08.25 +06 45 29.2 20.5 r G45 – Space Surveillance Telescope, Atom Site MPS 558645
2014 10 24.28024 01 31 07.88 +06 45 26.5 19.8 V G96 – Mt. Lemmon Survey MPS 542252
2014 10 24.28573 01 31 07.57 +06 45 24.6 20.2 r G45 – Space Surveillance Telescope, Atom Site MPS 558645
2014 10 24.28632 01 31 07.58 +06 45 23.5 20.0 V G96 – Mt. Lemmon Survey MPS 542252
2014 10 24.29242 01 31 07.27 +06 45 21.0 20.0 V G96 – Mt. Lemmon Survey MPS 542252
2014 10 24.29580 01 31 07.01 +06 45 18.4 20.2 r G45 – Space Surveillance Telescope, Atom Site MPS 558645
2014 10 24.29688 01 31 06.91 +06 45 19.5 20.1 r G45 – Space Surveillance Telescope, Atom Site MPS 558645
2014 10 24.29851 01 31 06.96 +06 45 18.3 20.1 V G96 – Mt. Lemmon Survey MPS 542252
2014 10 25.36488 01 30 16.606 +06 37 18.86 20.3 w F51 – Pan-STARRS 1, Haleakala MPS 542252
2014 10 25.37711 01 30 15.996 +06 37 13.64 20.3 w F51 – Pan-STARRS 1, Haleakala MPS 542252
2014 10 25.38938 01 30 15.394 +06 37 08.10 20.4 w F51 – Pan-STARRS 1, Haleakala MPS 542252
2014 10 25.40168 01 30 14.777 +06 37 02.27 20.4 w F51 – Pan-STARRS 1, Haleakala MPS 542252
2014 11 20.36446 01 16 10.455 +04 18 35.08 21.1 w F51 – Pan-STARRS 1, Haleakala MPS 547629
2014 11 20.37741 01 16 10.252 +04 18 32.81 21.3 w F51 – Pan-STARRS 1, Haleakala MPS 547629
2014 11 20.39030 01 16 10.056 +04 18 30.95 21.2 w F51 – Pan-STARRS 1, Haleakala MPS 547629
2014 11 20.40324 01 16 09.845 +04 18 28.61 21.1 w F51 – Pan-STARRS 1, Haleakala MPS 547629
2014 11 22.30043 01 15 47.212 +04 13 41.92 21.1 w F51 – Pan-STARRS 1, Haleakala MPS 549617
2014 11 22.30188 01 15 47.197 +04 13 41.82 21.1 w F51 – Pan-STARRS 1, Haleakala MPS 549617
2014 11 22.31438 01 15 47.036 +04 13 40.08 21.2 w F51 – Pan-STARRS 1, Haleakala MPS 549617
2014 11 22.31586 01 15 47.009 +04 13 39.87 21.2 w F51 – Pan-STARRS 1, Haleakala MPS 549617
2014 11 22.32722 01 15 46.876 +04 13 38.46 21.3 w F51 – Pan-STARRS 1, Haleakala MPS 549617
2014 11 22.34010 01 15 46.705 +04 13 36.51 21.0 w F51 – Pan-STARRS 1, Haleakala MPS 549617
2014 11 22.34158 01 15 46.675 +04 13 36.38 21.1 w F51 – Pan-STARRS 1, Haleakala MPS 549617
2017 04 20.43685 14 10 41.891 -09 50 37.40 21.4 w F51 – Pan-STARRS 1, Haleakala MPS 794696
2017 04 20.44789 14 10 41.282 -09 50 33.09 21.2 w F51 – Pan-STARRS 1, Haleakala MPS 794696
2017 04 20.45891 14 10 40.707 -09 50 28.89 21.2 w F51 – Pan-STARRS 1, Haleakala MPS 794696
2017 04 20.46998 14 10 40.104 -09 50 24.64 21.4 w F51 – Pan-STARRS 1, Haleakala MPS 794696
2017 05 01.26960 14 01 21.68 -08 40 46.3 21.8 V G96 – Mt. Lemmon Survey MPS 796433
2017 05 01.27384 14 01 21.36 -08 40 46.1 21.5 V G96 – Mt. Lemmon Survey MPS 796433
2017 05 01.27807 14 01 21.13 -08 40 44.9 20.8 V G96 – Mt. Lemmon Survey MPS 796433
2017 05 01.28230 14 01 20.95 -08 40 43.4 21.1 V G96 – Mt. Lemmon Survey MPS 796433
2018 09 12.28106 00 06 09.97 +03 28 40.2 19.7 G G96 – Mt. Lemmon Survey MPS 918804
2018 09 12.28623 00 06 09.73 +03 28 37.8 20.1 G G96 – Mt. Lemmon Survey MPS 918804
2018 09 12.29138 00 06 09.51 +03 28 35.1 20.0 G G96 – Mt. Lemmon Survey MPS 918804
2018 09 12.29654 00 06 09.28 +03 28 32.8 20.0 G G96 – Mt. Lemmon Survey MPS 918804
2018 09 12.30506 00 06 08.92 +03 28 29.6 21.1 G 703 – Catalina Sky Survey MPS 918804
2018 09 12.31778 00 06 08.33 +03 28 23.4 20.2 G 703 – Catalina Sky Survey MPS 918804
2018 09 12.32348 00 06 08.08 +03 28 20.5 20.2 G 703 – Catalina Sky Survey MPS 918804
